SCP
0 0 0 0 0 0 0 0 0 0 0 0 0 0 0 0 0 0 0 0 0 0 0 0 0 0 0 0 0 0 0 0 0 0 0 0 0 0 0 0 0 0 0 0 0 0 0
0 0 0 0 0 0 0 0 0 0 0 0 0 0 0 0 0 0 0 0 0 0 0 0 0 0 0 0 0 0 0 0 0 0 0 0 0 0 0 0 0 0 0 0 0 0 0
0 0 0 0 0 0 0 0 0 0 0 0 0 0 0 0 0 0 0 0 0 0 0 0 0 0 0 0 0 0 0 0 0 0 0 0 0 0 0 0 0 0 0 0 0 0 0
0 0 0 0 0 0 0 0 0 0 0 0 0 0 0 0 0 0 0 0 0 0 0 0 0 0 0 0 0 0 0 0 0 0 0 0 0 0 0 0 0 0 0 0 0 0 0
0 0 0 0 0 0 0 0 0 0 0 0 0 0 0 0 0 0 0 0 0 0 0 0 0 0 0 0 0 0 0 0 0 0 0 0 0 0 0 0 0 0 0 0 0 0 0
0 0 0 0 0 0 0 0 0 0 0 0 0 0 0 0 0 0 0 0 0 0 0 0 0 0 0 0 0 0 0 0 0 0 0 0 0 0 0 0 0 0 0 0 0 0 0
0 0 0 0 0 0 0 0 0 0 0 0 0 0 0 0 0 0 0 0 0 0 0 0 0 0 0 0 0 0 0 0 0 0 0 0 0 0 0 0 0 0 0 0 0 0 0
0 0 0 0 0 0 0 0 0 0 0 0 0 0 0 0 0 0 0 0 0 0 0 0 0 0 0 0 0 0 0 0 0 0 0 0 0 0 0 0 0 0 0 0 0 0 0
0 0 0 0 0 0 0 0 0 0 0 0 0 0 0 0 0 0 0 0 0 0 0 0 0 0 0 0 0 0 0 0 0 0 0 0 0 0 0 0 0 0 0 0 0 0 0
0 0 0 0 0 0 0 0 0 0 0 0 0 0 0 0 0 0 0 0 0 0 0 0 0 0 0 0 0 0 0 0 0 0 0 0 0 0 0 0 0 0 0 0 0 0 0
0 0 0 0 0 0 0 0 0 0 0 0 0 0 0 0 0 0 0 0 0 0 0 0 0 0 0 0 0 0 0 0 0 0 0 0 0 0 0 0 0 0 0 0 0 0 0
0 0 0 0 0 0 0 0 0 0 0 0 0 0 0 0 0 0 0 0 0 0 0 0 0 0 0 0 0 0 0 0 0 0 0 0 0 0 0 0 0 0 0 0 0 0 0
0 0 0 0 0 0 0 0 0 0 0 0 0 0 0 0 0 0 0 0 0 0 0 0 0 0 0 0 0 0 0 0 0 0 0 0 0 0 0 0 0 0 0 0 0 0 0
0 0 0 0 0 0 0 0 0 0 0 0 0 0 -0 0 0 1 0 0 0 0 0 0 0 0 0 0 0 0 0 0 0 0 0 0 0 0 0 0 0 0 0 0 0 0 0
0 0 0 0 0 0 0 0 0 0 0 0 0 0 0 0 0 1 0 0 0 0 0 0 0 0 0 0 0 0 0 0 0 0 0 0 0 0 0 0 0 0 0 0 0 0 0
0 0 0 0 0 0 0 0 0 0 0 0 0 0 0 0 0 0 0 0 0 0 0 0 0 0 0 0 0 0 0 0 0 0 0 0 0 0 0 0 0 0 0 0 0 0 0
0 0 0 0 -0 0 0 0 0 0 0 0 0 0 0 0 0 0 0 0 0 0 0 0 0 0 0 0 0 0 0 0 0 0 0 0 0 0 0 0 0 0 0 0 0 0 0
-0 0 0 0 -0 -0 -0 0 -0 0 0 0 0 0 0 0 0 0 0 0 0 0 0 0 0 0 0 0 0 1 0 0 0 0 0 0 0 0 0 0 0 0 0 0 0 0 0
-0 -0 -0 0 0 -0 -0 0 -0 0 0 0 0 0 0 0 0 0 0 0 0 0 0 0 0 0 0 0 0 0 0 0 0 0 0 0 0 0 0 0 0 0 0 0 0 0 0
0 0 0 -0 0 0 0 0 0 -0 -0 0 0 0 0 0 0 0 0 0 0 0 0 0 0 0 0 0 0 0 0 0 0 0 0 0 0 0 0 0 0 0 0 0 0 0 0
0 -0 0 0 0 -0 0 0 0 0 0 0 0 0 0 0 0 0 0 0 -0 0 0 0 0 0 0 0 0 0 0 0 0 0 0 0 0 0 0 0 0 0 0 0 0 0 0
-0 -0 -0 -0 0 0 0 0 0 0 0 0 0 0 0 0 0 0 0 0 0 -0 0 0 0 0 0 0 0 0 0 0 0 0 0 0 0 0 0 0 0 0 0 0 0 0 0
0 -0 -0 0 0 0 0 0 0 0 0 0 0 0 0 0 0 0 0 0 0 0 0 0 0 0 0 0 0 0 0 0 0 0 0 0 0 0 0 0 0 0 0 0 0 0 0
0 0 0 0 0 0 0 0 0 0 0 0 0 0 0 0 0 -0 -0 -0 0 0 0 0 0 0 0 0 0 0 0 0 0 0 0 0 0 0 0 0 0 0 0 0 0 0 0
0 0 0 0 0 0 0 0 0 0 0 0 0 0 0 0 0 -0 -0 0 0 0 0 0 0 0 0 0 0 0 -0 -0 0 0 0 0 0 0 0 0 0 0 0 0 0 0 0
-0 0 -0 -0 -0 0 0 0 0 0 0 0 0 0 0 0 0 0 0 0 0 0 0 0 0 0 0 0 0 0 0 0 -0 0 0 0 0 0 0 0 0 0 0 0 0 0 0
0 -0 -0 0 -0 0 0 0 0 0 0 0 0 0 0 0 0 0 0 0 0 0 0 0 0 0 0 0 0 0 0 0 -0 -0 -0 0 0 0 0 0 0 0 0 0 0 0 0
0 0 -0 0 0 0 0 0 0 0 0 0 0 0 0 0 0 0 0 0 0 0 0 0 0 0 0 0 0 0 0 0 0 0 0 0 0 0 0 0 0 0 0 0 0 0 0
-0 -0 0 0 0 0 0 0 0 0 0 0 0 0 0 0 0 0 0 0 0 0 0 0 0 0 0 0 0 0 0 0 0 -0 0 -0 0 0 0 0 0 0 0 0 0 0 0
Wind_Speed_500mb
40 40 39 37 33 30 36 36 31 31 30 26 26 27 27 33 39 49 51 34 19 27 25 25 24 19 15 13 18 19 16 9 9 21 24 26 26 14 12 9 10 13 10 10 16 19 18
46 45 43 41 40 40 37 40 37 38 33 29 29 33 32 29 33 35 36 47 35 25 25 28 26 21 15 14 16 18 14 10 11 20 25 28 15 18 8 7 16 3 11 18 15 23 18
53 53 51 47 47 45 46 46 40 39 39 34 31 32 32 32 28 35 34 32 49 28 25 28 29 22 24 40 17 15 15 15 17 18 24 28 14 15 9 6 9 3 11 14 22 16 12
60 58 56 55 55 54 54 50 45 41 39 39 36 36 36 35 32 28 30 30 32 46 19 27 27 22 20 26 29 41 22 15 17 20 19 25 20 15 3 1 1 5 4 9 5 14 6
64 62 63 59 57 58 58 54 56 51 50 48 45 40 35 32 36 35 31 28 26 34 23 25 21 17 19 23 39 38 35 34 20 21 20 25 22 8 8 4 6 6 10 14 8 15 5
74 64 66 66 68 63 54 62 56 60 59 50 46 44 36 32 34 36 33 26 17 13 32 21 19 11 34 19 26 28 35 33 26 34 22 19 9 11 8 16 17 16 11 9 12 7 9
77 68 80 76 70 68 82 70 69 61 56 50 53 46 45 37 33 33 26 21 5 12 41 36 18 20 9 23 17 21 37 36 26 22 17 17 16 29 40 40 8 3 8 11 4 0 8
74 81 77 78 73 70 64 63 65 62 60 56 52 49 43 39 39 31 29 24 17 2 19 62 67 38 27 19 12 29 44 28 21 18 19 11 30 29 18 20 24 17 10 11 9 2 7
74 80 76 73 69 67 67 68 66 63 60 55 54 51 46 40 36 40 37 36 31 25 16 30 59 78 56 41 20 43 61 25 19 23 34 25 9 26 24 18 24 27 32 20 11 9 8
75 72 72 63 62 63 64 64 68 63 62 60 54 53 54 42 42 45 43 29 36 19 10 17 24 36 60 40 26 32 62 29 11 31 23 20 15 16 23 31 28 27 27 29 21 9 11
78 82 82 68 65 67 65 64 66 62 62 62 58 59 53 55 41 38 42 34 25 16 12 13 29 20 47 60 34 41 72 32 26 23 17 14 24 28 16 19 35 10 10 20 18 18 11
84 81 81 70 66 73 78 68 63 63 67 63 68 59 58 60 53 43 35 36 34 14 28 9 24 29 30 61 26 32 49 25 17 18 8 8 1 12 9 7 33 24 16 11 6 5 11
84 81 82 74 75 68 66 75 69 64 62 63 67 63 60 60 59 52 47 49 16 27 3 17 18 22 41 28 39 31 40 33 24 17 25 18 18 7 12 16 9 13 19 4 4 6 13
85 79 80 80 73 75 74 68 65 68 63 62 59 63 74 66 67 63 62 20 35 46 54 16 18 32 36 36 37 32 42 39 51 30 23 24 16 29 19 15 21 20 16 10 14 11 5
75 82 75 77 83 56 60 63 65 69 71 68 68 73 71 79 66 71 61 36 37 38 50 28 26 34 28 39 25 32 39 53 48 52 26 24 22 25 29 9 20 14 15 4 11 3 4
71 77 71 67 67 60 64 69 70 75 73 72 72 76 85 81 82 69 33 64 29 40 17 52 46 36 39 33 39 41 42 42 41 51 34 16 7 6 14 13 3 16 20 9 3 13 17
78 68 60 63 62 62 64 70 79 74 75 76 75 65 72 84 74 66 33 42 36 48 57 29 62 47 40 42 42 33 38 27 63 47 39 13 6 5 15 27 35 14 13 8 5 10 11
62 58 65 68 61 63 65 61 69 66 69 68 78 29 76 80 34 16 37 29 58 47 73 40 25 47 49 49 46 36 59 45 54 45 56 35 6 14 22 3 9 36 34 27 18 21 12
54 53 59 70 72 59 46 52 64 59 62 69 63 43 42 71 37 38 37 33 45 27 56 55 40 33 48 50 50 51 36 41 29 46 38 38 13 13 8 5 9 20 23 41 29 5 23
56 50 44 47 53 43 44 38 45 49 56 73 22 9 32 59 66 35 44 53 45 69 46 54 51 49 43 52 48 31 52 26 43 49 50 33 10 40 37 45 25 26 44 37 34 14 42
60 58 50 48 48 44 39 44 44 49 50 49 20 16 19 15 26 37 48 39 55 48 56 56 50 53 46 50 52 54 42 46 24 47 44 18 31 31 47 12 34 36 40 39 36 57 29
68 65 59 54 47 47 49 52 47 41 39 58 18 13 18 13 42 47 58 48 62 63 37 47 63 54 54 41 50 47 49 44 37 26 45 25 9 32 34 16 15 20 43 47 53 47 38
63 61 59 59 53 52 49 57 53 47 45 46 44 57 21 15 26 29 44 60 49 57 57 68 37 51 60 54 58 31 44 14 2 19 32 28 14 15 40 19 10 12 40 55 46 43 60
65 62 61 62 60 53 57 57 53 48 52 60 35 26 17 26 29 34 39 59 60 50 48 37 45 31 13 34 52 16 12 14 16 16 15 15 22 11 18 20 33 27 34 36 48 40 46
78 89 67 67 65 59 59 59 54 48 44 50 55 41 18 13 29 25 30 50 39 49 45 34 37 42 18 18 11 14 13 14 20 27 25 24 31 26 14 28 6 16 30 39 39 55 40
82 78 75 75 71 67 60 58 55 51 46 45 52 48 34 7 15 22 26 34 16 21 21 8 30 52 51 8 10 17 15 9 14 12 31 31 44 36 14 27 44 29 28 29 25 29 45
101 99 92 84 81 73 64 62 59 54 47 47 48 45 41 10 9 27 15 23 22 21 14 12 21 21 49 12 9 10 7 12 14 16 10 31 31 46 40 21 11 15 32 52 29 27 37
102 100 86 92 86 76 68 59 56 53 49 46 55 55 53 10 14 42 27 33 21 30 15 14 17 10 13 11 6 8 8 10 12 8 9 5 19 26 32 29 23 17 39 47 42 33 4
72 41 45 74 75 70 63 55 55 54 53 48 48 53 56 29 11 43 51 39 64 58 27 25 6 10 13 10 9 8 6 7 12 11 6 9 12 11 9 10 8 55 50 71 22 30 31
Wind_Direction_500mb
290 291 293 293 294 290 294 296 303 297 297 291 278 293 299 274 267 263 265 262 280 262 272 285 286 278 282 264 247 263 281 284 189 194 196 195 175 167 203 200 168 233 252 229 250 252 254
286 286 285 284 286 283 282 282 290 291 287 287 294 275 277 299 290 276 265 254 257 267 257 269 273 280 269 251 250 250 255 239 202 195 198 194 208 192 175 193 207 253 261 267 271 255 249
284 282 282 280 274 276 278 280 281 283 288 287 283 282 278 272 290 301 276 260 246 259 251 263 261 261 258 255 252 228 234 230 216 205 202 199 182 184 178 180 231 251 290 279 241 240 243
276 276 275 274 275 276 276 274 271 278 279 281 283 278 269 261 270 286 302 276 257 240 253 256 259 256 253 259 244 235 219 209 214 204 197 194 192 189 200 287 113 231 218 258 110 178 234
277 270 271 268 269 272 271 273 272 273 267 273 269 274 281 264 260 270 290 307 283 242 252 257 248 233 260 243 229 229 219 213 193 187 176 178 169 171 153 200 255 217 253 217 290 199 156
270 276 271 271 269 268 272 270 269 267 273 263 264 263 264 268 267 263 276 306 291 226 228 222 223 242 236 231 224 218 205 200 176 165 145 165 167 181 155 183 224 225 231 239 245 164 211
280 275 271 274 269 268 269 265 264 266 265 259 265 259 257 258 258 264 268 281 220 226 221 209 210 214 287 207 203 198 191 177 159 158 169 176 205 205 198 203 183 199 252 266 264 112 244
276 275 273 268 266 266 263 264 263 262 263 258 259 258 252 247 248 248 254 225 234 294 261 234 240 237 242 204 198 188 179 178 173 181 143 159 228 223 222 199 210 215 246 263 273 193 248
279 278 272 269 267 267 268 264 265 263 261 259 252 253 250 245 241 234 229 230 237 274 266 244 231 230 226 225 226 193 180 188 195 178 191 201 150 202 186 188 207 225 223 224 248 324 230
281 278 272 270 269 267 266 264 265 264 258 258 254 251 242 238 246 235 229 230 228 271 276 236 207 230 213 209 240 206 183 172 182 200 180 232 189 149 190 215 196 229 215 221 238 266 261
291 279 273 269 268 269 268 264 260 262 260 255 255 249 239 230 230 228 225 214 211 154 253 196 186 199 188 185 150 190 188 192 174 169 180 213 177 178 181 206 191 236 165 207 212 218 270
286 285 279 274 267 268 267 262 262 260 263 256 251 248 241 233 230 230 219 208 186 185 232 221 161 176 164 197 176 151 182 198 165 168 235 254 196 199 200 122 180 142 110 87 85 181 243
287 280 280 271 271 266 263 259 255 255 252 255 251 246 235 227 225 219 201 191 203 213 147 199 184 174 180 177 180 174 183 191 172 159 203 191 205 203 163 123 143 187 165 132 203 205 254
283 282 275 274 269 262 258 258 252 251 248 250 246 248 245 224 226 225 212 216 217 206 210 103 171 167 191 175 199 190 179 198 211 201 161 191 214 187 182 187 177 180 192 173 208 199 251
291 292 280 266 265 259 255 257 256 252 246 244 245 239 240 239 221 220 209 219 211 219 208 220 166 177 198 200 194 178 198 204 198 198 191 194 227 195 177 150 152 182 208 144 102 52 274
293 291 282 270 265 261 255 251 255 253 245 239 237 238 234 234 239 214 218 240 215 228 227 215 210 195 189 196 198 191 191 215 208 207 212 196 169 218 162 143 147 179 138 146 222 216 238
290 285 282 271 268 265 256 263 254 251 240 240 231 232 231 227 224 218 225 219 226 221 233 217 220 218 216 195 203 200 206 217 200 196 201 166 199 132 164 212 178 160 175 181 215 222 242
285 277 280 278 276 274 274 260 245 246 238 227 229 230 229 218 213 221 232 220 232 225 227 238 245 224 221 212 203 210 212 201 200 180 196 204 191 169 200 12 292 222 206 179 182 206 228
292 284 287 289 276 275 270 252 242 242 228 223 220 202 209 204 217 222 225 256 215 219 212 223 229 234 225 228 223 210 210 205 190 186 192 187 203 165 138 282 208 223 213 208 226 47 212
296 290 289 298 294 276 252 244 238 237 231 228 204 209 193 202 220 224 216 230 243 232 239 223 218 226 234 226 232 227 220 196 198 195 202 186 212 211 205 210 156 198 204 205 198 189 228
290 289 287 285 292 261 252 237 240 225 226 227 214 216 195 185 214 221 221 228 221 235 212 213 227 212 219 227 222 228 228 214 202 193 196 200 219 219 230 238 189 200 194 192 199 215 203
283 276 276 280 285 266 250 236 240 229 218 217 210 214 174 227 208 208 218 223 230 227 236 228 222 210 209 230 219 215 222 222 207 205 194 196 221 219 233 227 212 204 196 190 201 215 226
283 279 272 271 274 260 256 233 233 230 220 222 232 225 215 215 225 219 216 221 220 221 224 224 218 222 215 220 226 234 236 241 109 215 199 195 178 182 220 173 152 237 199 194 206 212 216
283 280 270 268 257 254 242 231 229 231 228 237 221 192 189 227 226 229 248 221 212 203 200 204 195 219 210 225 227 196 230 232 240 237 230 225 180 192 209 155 219 219 197 199 203 209 218
281 281 264 259 254 247 238 230 226 228 229 237 242 220 191 227 224 220 220 192 191 204 211 213 195 185 183 198 191 175 192 187 209 237 240 243 231 220 209 200 160 191 188 187 188 226 209
293 287 278 256 243 238 229 227 226 224 223 234 245 240 223 208 219 205 183 188 167 177 185 186 229 234 203 229 188 207 202 166 191 206 212 220 243 209 191 217 219 202 183 195 178 252 211
297 285 266 251 231 228 224 223 221 221 219 226 244 245 210 196 230 191 192 176 166 157 156 163 158 170 186 180 229 206 173 152 193 185 184 206 213 207 208 219 230 194 153 152 173 228 247
303 295 253 226 215 217 218 218 219 220 220 227 236 238 208 218 226 197 191 169 155 168 165 169 141 164 179 166 192 194 161 183 187 201 175 239 209 217 223 233 231 152 159 173 205 211 196
313 299 201 194 201 206 211 216 220 222 221 219 221 227 219 208 222 205 215 204 193 183 162 166 182 155 162 165 183 155 209 164 170 219 123 240 189 305 267 238 307 179 183 200 203 203 222
Wind_Speed_850mb
40 40 39 37 33 30 36 36 31 31 30 26 26 27 27 33 39 49 51 34 19 27 25 25 24 19 15 13 18 19 16 9 9 21 24 26 26 14 12 9 10 13 10 10 16 19 18
46 45 43 41 40 40 37 40 37 38 33 29 29 33 32 29 33 35 36 47 35 25 25 28 26 21 15 14 16 18 14 10 11 20 25 28 15 18 8 7 16 3 11 18 15 23 18
53 53 51 47 47 45 46 46 40 39 39 34 31 32 32 32 28 35 34 32 49 28 25 28 29 22 24 40 17 15 15 15 17 18 24 28 14 15 9 6 9 3 11 14 22 16 12
60 58 56 55 55 54 54 50 45 41 39 39 36 36 36 35 32 28 30 30 32 46 19 27 27 22 20 26 29 41 22 15 17 20 19 25 20 15 3 1 1 5 4 9 5 14 6
64 62 63 59 57 58 58 54 56 51 50 48 45 40 35 32 36 35 31 28 26 34 23 25 21 17 19 23 39 38 35 34 20 21 20 25 22 8 8 4 6 6 10 14 8 15 5
74 64 66 66 68 63 54 62 56 60 59 50 46 44 36 32 34 36 33 26 17 13 32 21 19 11 34 19 26 28 35 33 26 34 22 19 9 11 8 16 17 16 11 9 12 7 9
77 68 80 76 70 68 82 70 69 61 56 50 53 46 45 37 33 33 26 21 5 12 41 36 18 20 9 23 17 21 37 36 26 22 17 17 16 29 40 40 8 3 8 11 4 0 8
74 81 77 78 73 70 64 63 65 62 60 56 52 49 43 39 39 31 29 24 17 2 19 62 67 38 27 19 12 29 44 28 21 18 19 11 30 29 18 20 24 17 10 11 9 2 7
74 80 76 73 69 67 67 68 66 63 60 55 54 51 46 40 36 40 37 36 31 25 16 30 59 78 56 41 20 43 61 25 19 23 34 25 9 26 24 18 24 27 32 20 11 9 8
75 72 72 63 62 63 64 64 68 63 62 60 54 53 54 42 42 45 43 29 36 19 10 17 24 36 60 40 26 32 62 29 11 31 23 20 15 16 23 31 28 27 27 29 21 9 11
78 82 82 68 65 67 65 64 66 62 62 62 58 59 53 55 41 38 42 34 25 16 12 13 29 20 47 60 34 41 72 32 26 23 17 14 24 28 16 19 35 10 10 20 18 18 11
84 81 81 70 66 73 78 68 63 63 67 63 68 59 58 60 53 43 35 36 34 14 28 9 24 29 30 61 26 32 49 25 17 18 8 8 1 12 9 7 33 24 16 11 6 5 11
84 81 82 74 75 68 66 75 69 64 62 63 67 63 60 60 59 52 47 49 16 27 3 17 18 22 41 28 39 31 40 33 24 17 25 18 18 7 12 16 9 13 19 4 4 6 13
85 79 80 80 73 75 74 68 65 68 63 62 59 63 74 66 67 63 62 20 35 46 54 16 18 32 36 36 37 32 42 39 51 30 23 24 16 29 19 15 21 20 16 10 14 11 5
75 82 75 77 83 56 60 63 65 69 71 68 68 73 71 79 66 71 61 36 37 38 50 28 26 34 28 39 25 32 39 53 48 52 26 24 22 25 29 9 20 14 15 4 11 3 4
71 77 71 67 67 60 64 69 70 75 73 72 72 76 85 81 82 69 33 64 29 40 17 52 46 36 39 33 39 41 42 42 41 51 34 16 7 6 14 13 3 16 20 9 3 13 17
78 68 60 63 62 62 64 70 79 74 75 76 75 65 72 84 74 66 33 42 36 48 57 29 62 47 40 42 42 33 38 27 63 47 39 13 6 5 15 27 35 14 13 8 5 10 11
62 58 65 68 61 63 65 61 69 66 69 68 78 29 76 80 34 16 37 29 58 47 73 40 25 47 49 49 46 36 59 45 54 45 56 35 6 14 22 3 9 36 34 27 18 21 12
54 53 59 70 72 59 46 52 64 59 62 69 63 43 42 71 37 38 37 33 45 27 56 55 40 33 48 50 50 51 36 41 29 46 38 38 13 13 8 5 9 20 23 41 29 5 23
56 50 44 47 53 43 44 38 45 49 56 73 22 9 32 59 66 35 44 53 45 69 46 54 51 49 43 52 48 31 52 26 43 49 50 33 10 40 37 45 25 26 44 37 34 14 42
60 58 50 48 48 44 39 44 44 49 50 49 20 16 19 15 26 37 48 39 55 48 56 56 50 53 46 50 52 54 42 46 24 47 44 18 31 31 47 12 34 36 40 39 36 57 29
68 65 59 54 47 47 49 52 47 41 39 58 18 13 18 13 42 47 58 48 62 63 37 47 63 54 54 41 50 47 49 44 37 26 45 25 9 32 34 16 15 20 43 47 53 47 38
63 61 59 59 53 52 49 57 53 47 45 46 44 57 21 15 26 29 44 60 49 57 57 68 37 51 60 54 58 31 44 14 2 19 32 28 14 15 40 19 10 12 40 55 46 43 60
65 62 61 62 60 53 57 57 53 48 52 60 35 26 17 26 29 34 39 59 60 50 48 37 45 31 13 34 52 16 12 14 16 16 15 15 22 11 18 20 33 27 34 36 48 40 46
78 89 67 67 65 59 59 59 54 48 44 50 55 41 18 13 29 25 30 50 39 49 45 34 37 42 18 18 11 14 13 14 20 27 25 24 31 26 14 28 6 16 30 39 39 55 40
82 78 75 75 71 67 60 58 55 51 46 45 52 48 34 7 15 22 26 34 16 21 21 8 30 52 51 8 10 17 15 9 14 12 31 31 44 36 14 27 44 29 28 29 25 29 45
101 99 92 84 81 73 64 62 59 54 47 47 48 45 41 10 9 27 15 23 22 21 14 12 21 21 49 12 9 10 7 12 14 16 10 31 31 46 40 21 11 15 32 52 29 27 37
102 100 86 92 86 76 68 59 56 53 49 46 55 55 53 10 14 42 27 33 21 30 15 14 17 10 13 11 6 8 8 10 12 8 9 5 19 26 32 29 23 17 39 47 42 33 4
72 41 45 74 75 70 63 55 55 54 53 48 48 53 56 29 11 43 51 39 64 58 27 25 6 10 13 10 9 8 6 7 12 11 6 9 12 11 9 10 8 55 50 71 22 30 31
Wind_Direction_850mb
290 291 293 293 294 290 294 296 303 297 297 291 278 293 299 274 267 263 265 262 280 262 272 285 286 278 282 264 247 263 281 284 189 194 196 195 175 167 203 200 168 233 252 229 250 252 254
286 286 285 284 286 283 282 282 290 291 287 287 294 275 277 299 290 276 265 254 257 267 257 269 273 280 269 251 250 250 255 239 202 195 198 194 208 192 175 193 207 253 261 267 271 255 249
284 282 282 280 274 276 278 280 281 283 288 287 283 282 278 272 290 301 276 260 246 259 251 263 261 261 258 255 252 228 234 230 216 205 202 199 182 184 178 180 231 251 290 279 241 240 243
276 276 275 274 275 276 276 274 271 278 279 281 283 278 269 261 270 286 302 276 257 240 253 256 259 256 253 259 244 235 219 209 214 204 197 194 192 189 200 287 113 231 218 258 110 178 234
277 270 271 268 269 272 271 273 272 273 267 273 269 274 281 264 260 270 290 307 283 242 252 257 248 233 260 243 229 229 219 213 193 187 176 178 169 171 153 200 255 217 253 217 290 199 156
270 276 271 271 269 268 272 270 269 267 273 263 264 263 264 268 267 263 276 306 291 226 228 222 223 242 236 231 224 218 205 200 176 165 145 165 167 181 155 183 224 225 231 239 245 164 211
280 275 271 274 269 268 269 265 264 266 265 259 265 259 257 258 258 264 268 281 220 226 221 209 210 214 287 207 203 198 191 177 159 158 169 176 205 205 198 203 183 199 252 266 264 112 244
276 275 273 268 266 266 263 264 263 262 263 258 259 258 252 247 248 248 254 225 234 294 261 234 240 237 242 204 198 188 179 178 173 181 143 159 228 223 222 199 210 215 246 263 273 193 248
279 278 272 269 267 267 268 264 265 263 261 259 252 253 250 245 241 234 229 230 237 274 266 244 231 230 226 225 226 193 180 188 195 178 191 201 150 202 186 188 207 225 223 224 248 324 230
281 278 272 270 269 267 266 264 265 264 258 258 254 251 242 238 246 235 229 230 228 271 276 236 207 230 213 209 240 206 183 172 182 200 180 232 189 149 190 215 196 229 215 221 238 266 261
291 279 273 269 268 269 268 264 260 262 260 255 255 249 239 230 230 228 225 214 211 154 253 196 186 199 188 185 150 190 188 192 174 169 180 213 177 178 181 206 191 236 165 207 212 218 270
286 285 279 274 267 268 267 262 262 260 263 256 251 248 241 233 230 230 219 208 186 185 232 221 161 176 164 197 176 151 182 198 165 168 235 254 196 199 200 122 180 142 110 87 85 181 243
287 280 280 271 271 266 263 259 255 255 252 255 251 246 235 227 225 219 201 191 203 213 147 199 184 174 180 177 180 174 183 191 172 159 203 191 205 203 163 123 143 187 165 132 203 205 254
283 282 275 274 269 262 258 258 252 251 248 250 246 248 245 224 226 225 212 216 217 206 210 103 171 167 191 175 199 190 179 198 211 201 161 191 214 187 182 187 177 180 192 173 208 199 251
291 292 280 266 265 259 255 257 256 252 246 244 245 239 240 239 221 220 209 219 211 219 208 220 166 177 198 200 194 178 198 204 198 198 191 194 227 195 177 150 152 182 208 144 102 52 274
293 291 282 270 265 261 255 251 255 253 245 239 237 238 234 234 239 214 218 240 215 228 227 215 210 195 189 196 198 191 191 215 208 207 212 196 169 218 162 143 147 179 138 146 222 216 238
290 285 282 271 268 265 256 263 254 251 240 240 231 232 231 227 224 218 225 219 226 221 233 217 220 218 216 195 203 200 206 217 200 196 201 166 199 132 164 212 178 160 175 181 215 222 242
285 277 280 278 276 274 274 260 245 246 238 227 229 230 229 218 213 221 232 220 232 225 227 238 245 224 221 212 203 210 212 201 200 180 196 204 191 169 200 12 292 222 206 179 182 206 228
292 284 287 289 276 275 270 252 242 242 228 223 220 202 209 204 217 222 225 256 215 219 212 223 229 234 225 228 223 210 210 205 190 186 192 187 203 165 138 282 208 223 213 208 226 47 212
296 290 289 298 294 276 252 244 238 237 231 228 204 209 193 202 220 224 216 230 243 232 239 223 218 226 234 226 232 227 220 196 198 195 202 186 212 211 205 210 156 198 204 205 198 189 228
290 289 287 285 292 261 252 237 240 225 226 227 214 216 195 185 214 221 221 228 221 235 212 213 227 212 219 227 222 228 228 214 202 193 196 200 219 219 230 238 189 200 194 192 199 215 203
283 276 276 280 285 266 250 236 240 229 218 217 210 214 174 227 208 208 218 223 230 227 236 228 222 210 209 230 219 215 222 222 207 205 194 196 221 219 233 227 212 204 196 190 201 215 226
283 279 272 271 274 260 256 233 233 230 220 222 232 225 215 215 225 219 216 221 220 221 224 224 218 222 215 220 226 234 236 241 109 215 199 195 178 182 220 173 152 237 199 194 206 212 216
283 280 270 268 257 254 242 231 229 231 228 237 221 192 189 227 226 229 248 221 212 203 200 204 195 219 210 225 227 196 230 232 240 237 230 225 180 192 209 155 219 219 197 199 203 209 218
281 281 264 259 254 247 238 230 226 228 229 237 242 220 191 227 224 220 220 192 191 204 211 213 195 185 183 198 191 175 192 187 209 237 240 243 231 220 209 200 160 191 188 187 188 226 209
293 287 278 256 243 238 229 227 226 224 223 234 245 240 223 208 219 205 183 188 167 177 185 186 229 234 203 229 188 207 202 166 191 206 212 220 243 209 191 217 219 202 183 195 178 252 211
297 285 266 251 231 228 224 223 221 221 219 226 244 245 210 196 230 191 192 176 166 157 156 163 158 170 186 180 229 206 173 152 193 185 184 206 213 207 208 219 230 194 153 152 173 228 247
303 295 253 226 215 217 218 218 219 220 220 227 236 238 208 218 226 197 191 169 155 168 165 169 141 164 179 166 192 194 161 183 187 201 175 239 209 217 223 233 231 152 159 173 205 211 196
313 299 201 194 201 206 211 216 220 222 221 219 221 227 219 208 222 205 215 204 193 183 162 166 182 155 162 165 183 155 209 164 170 219 123 240 189 305 267 238 307 179 183 200 203 203 222